Tracking 25711 objects as of 22-May-2022
HD Live streaming from Space Station
objects crossing your sky now

INTELSAT 601

Track INTELSAT 601 now!
INTELSAT 601 is classified as:


NORAD ID: 21765
Int'l Code: 1991-075A
Perigee: 35,964.9 km
Apogee: 36,008.2 km
Inclination: 11.9 °
Period: 1,446.0 minutes
Semi major axis: 42357 km
RCS: 16.4798 m2 (large)
Launch date: October 29, 1991
Source: International Telecommunications Satellite Organization (ITSO)
Launch site: FRENCH GUIANA (FRGUI)

64 C-band, 24 Ku-band; Broadcasting, business services, direct-to-home TV broadcasting, telecommunications, VSAT networks; Indian Ocean region.
aabbcc
Your satellite tracking list
Your tracking list is empty




NASA's NSSDC Master Catalog

Two Line Element Set (TLE):
1 21765U 91075A   22142.15600312 -.00000184  00000-0  00000-0 0  9996
2 21765  11.9288  26.9311 0005113  24.3545 167.0352  0.99587991111562
Source of the keplerian elements: AFSPC